Location: Azul
(36.7830°S, 59.8500°W)
Time: 09:30:21
(UTC-03:00)

KAITUO 1B - Visible Passes

Search period start: 22 October 2021 00:00
Search period end: 01 November 2021 00:00
Orbit: 488 x 510 km, 97.4° (Epoch: 22 October)

Date Brightness Start Highest point End Pass type
(mag) Time Alt. Az. Time Alt. Az. Time Alt. Az.
22 Oct ? 20:23:47 10° SSW 20:26:20 18° WSW 20:28:52 10° WNW visible
23 Oct ? 20:03:15 10° S 20:06:35 30° WSW 20:09:50 10° NW visible
26 Oct ? 20:38:44 10° SW 20:40:12 12° WSW 20:41:39 10° W visible
27 Oct ? 20:17:38 10° SSW 20:20:27 21° WSW 20:23:13 10° WNW visible
28 Oct ? 19:57:10 10° S 20:00:38 36° WSW 20:04:01 10° NW visible
31 Oct ? 20:32:10 10° SW 20:34:11 14° WSW 20:36:10 10° W visible
